Time,TemperatureF,DewpointF,PressureIn,WindDirection,WindDirectionDegrees,WindSpeedMPH,WindSpeedGustMPH,Humidity,HourlyPrecipIn,Conditions,Clouds,dailyrainin,SoftwareType,DateUTC
2013-10-18 00:01:00,47.5,41.3,29.97,SE,131,0.0,0.0,79,0.00,,,0.00,LWC V2.00 B2112,2013-10-18 07:01:00,
2013-10-18 00:06:00,47.7,41.5,29.97,SE,131,0.0,0.0,79,0.00,,,0.00,LWC V2.00 B2112,2013-10-18 07:06:00,
2013-10-18 00:11:00,47.9,41.7,29.97,SE,131,0.0,0.0,79,0.00,,,0.00,LWC V2.00 B2112,2013-10-18 07:11:00,
2013-10-18 00:16:00,48.0,41.8,29.97,SE,131,0.0,0.0,79,0.00,,,0.00,LWC V2.00 B2112,2013-10-18 07:16:00,
2013-10-18 00:21:00,48.2,42.0,29.97,SE,131,0.0,0.0,79,0.00,,,0.00,LWC V2.00 B2112,2013-10-18 07:21:00,
2013-10-18 00:26:00,48.3,42.1,29.97,SE,131,0.0,0.0,79,0.00,,,0.00,LWC V2.00 B2112,2013-10-18 07:26:00,
2013-10-18 00:31:00,48.5,42.3,29.97,SE,131,0.0,0.0,79,0.00,,,0.00,LWC V2.00 B2112,2013-10-18 07:31:00,
2013-10-18 00:36:00,48.8,42.6,29.97,SE,131,0.0,0.0,79,0.00,,,0.00,LWC V2.00 B2112,2013-10-18 07:36:00,
2013-10-18 00:41:00,48.9,42.7,29.97,SE,131,0.0,0.0,79,0.00,,,0.00,LWC V2.00 B2112,2013-10-18 07:41:00,
2013-10-18 00:46:00,49.1,42.5,29.97,SE,131,0.0,0.0,78,0.00,,,0.00,LWC V2.00 B2112,2013-10-18 07:46:00,
2013-10-18 00:51:00,49.3,42.7,29.97,SE,131,0.0,0.0,78,0.00,,,0.00,LWC V2.00 B2112,2013-10-18 07:51:00,
2013-10-18 00:56:00,49.5,42.9,29.97,SE,131,0.0,0.0,78,0.00,,,0.00,LWC V2.00 B2112,2013-10-18 07:56:00,
2013-10-18 01:01:00,49.7,43.1,29.97,SE,127,0.0,0.0,78,0.00,,,0.00,LWC V2.00 B2112,2013-10-18 08:01:00,
2013-10-18 01:06:00,49.8,43.2,29.97,SE,128,0.0,0.0,78,0.00,,,0.00,LWC V2.00 B2112,2013-10-18 08:06:00,
2013-10-18 01:11:00,50.0,43.4,29.97,SE,127,0.0,0.0,78,0.00,,,0.00,LWC V2.00 B2112,2013-10-18 08:11:00,
2013-10-18 01:16:00,50.0,43.4,29.97,NNW,344,0.0,0.0,78,0.00,,,0.00,LWC V2.00 B2112,2013-10-18 08:16:00,
2013-10-18 01:21:00,50.1,43.5,29.97,NNW,345,0.0,0.0,78,0.00,,,0.00,LWC V2.00 B2112,2013-10-18 08:21:00,
2013-10-18 01:26:00,50.2,43.6,29.97,NNW,344,0.0,0.0,78,0.00,,,0.00,LWC V2.00 B2112,2013-10-18 08:26:00,
2013-10-18 01:30:00,50.2,43.6,29.97,North,4,0.0,0.0,78,0.00,,,0.00,LWC V2.00 B2112,2013-10-18 08:30:00,
2013-10-18 01:31:00,50.2,43.6,29.97,NNW,344,0.0,0.0,78,0.00,,,0.00,LWC V2.00 B2112,2013-10-18 08:31:00,
2013-10-18 01:40:00,50.2,43.6,29.97,North,0,0.0,0.0,78,0.00,,,0.00,LWC V2.00 B2112,2013-10-18 08:40:00,
2013-10-18 01:50:00,50.2,43.6,29.97,North,0,0.0,0.0,78,0.00,,,0.00,LWC V2.00 B2112,2013-10-18 08:50:00,
2013-10-18 02:00:00,50.2,43.6,29.97,North,0,0.0,0.0,78,0.00,,,0.00,LWC V2.00 B2112,2013-10-18 09:00:00,
2013-10-18 02:10:00,50.2,43.6,29.97,North,0,0.0,0.0,78,0.00,,,0.00,LWC V2.00 B2112,2013-10-18 09:10:00,
2013-10-18 02:20:00,50.2,43.6,29.97,North,0,0.0,0.0,78,0.00,,,0.00,LWC V2.00 B2112,2013-10-18 09:20:00,
2013-10-18 02:30:00,50.2,43.6,29.97,North,0,0.0,0.0,78,0.00,,,0.00,LWC V2.00 B2112,2013-10-18 09:30:00,
2013-10-18 02:40:00,49.9,43.3,29.98,North,0,0.0,0.0,78,0.00,,,0.00,LWC V2.00 B2112,2013-10-18 09:40:00,
2013-10-18 02:50:00,49.9,43.3,29.98,North,0,0.0,0.0,78,0.00,,,0.00,LWC V2.00 B2112,2013-10-18 09:50:00,
2013-10-18 03:00:00,49.9,43.3,29.98,North,0,0.0,0.0,78,0.00,,,0.00,LWC V2.00 B2112,2013-10-18 10:00:00,
2013-10-18 03:10:00,49.9,43.3,29.97,North,0,0.0,0.0,78,0.00,,,0.00,LWC V2.00 B2112,2013-10-18 10:10:00,
2013-10-18 03:20:00,49.9,43.3,29.97,North,0,0.0,0.0,78,0.00,,,0.00,LWC V2.00 B2112,2013-10-18 10:20:00,
2013-10-18 03:30:00,49.9,43.3,29.97,North,0,0.0,0.0,78,0.00,,,0.00,LWC V2.00 B2112,2013-10-18 10:30:00,
2013-10-18 03:40:00,49.7,43.1,29.97,North,0,0.0,0.0,78,0.00,,,0.00,LWC V2.00 B2112,2013-10-18 10:40:00,
2013-10-18 03:50:00,49.7,43.1,29.97,North,0,0.0,0.0,78,0.00,,,0.00,LWC V2.00 B2112,2013-10-18 10:50:00,
2013-10-18 04:00:00,49.7,43.1,29.97,North,0,0.0,0.0,78,0.00,,,0.00,LWC V2.00 B2112,2013-10-18 11:00:00,
2013-10-18 04:10:00,49.9,43.3,29.97,North,0,0.0,0.0,78,0.00,,,0.00,LWC V2.00 B2112,2013-10-18 11:10:00,
2013-10-18 04:20:00,49.9,43.3,29.97,North,0,0.0,0.0,78,0.00,,,0.00,LWC V2.00 B2112,2013-10-18 11:20:00,
2013-10-18 04:30:00,49.9,43.3,29.97,North,0,0.0,0.0,78,0.00,,,0.00,LWC V2.00 B2112,2013-10-18 11:30:00,
2013-10-18 04:40:00,49.7,43.1,29.97,North,0,0.0,0.0,78,0.00,,,0.00,LWC V2.00 B2112,2013-10-18 11:40:00,
2013-10-18 04:50:00,49.7,43.1,29.97,North,0,0.0,0.0,78,0.00,,,0.00,LWC V2.00 B2112,2013-10-18 11:50:00,
2013-10-18 05:00:00,49.7,43.1,29.97,North,0,0.0,0.0,78,0.00,,,0.00,LWC V2.00 B2112,2013-10-18 12:00:00,
2013-10-18 05:10:00,49.4,42.8,29.97,North,0,0.0,0.0,78,0.00,,,0.00,LWC V2.00 B2112,2013-10-18 12:10:00,
2013-10-18 05:20:00,49.4,42.8,29.97,North,0,0.0,0.0,78,0.00,,,0.00,LWC V2.00 B2112,2013-10-18 12:20:00,
2013-10-18 05:30:00,49.4,42.8,29.97,North,0,0.0,0.0,78,0.00,,,0.00,LWC V2.00 B2112,2013-10-18 12:30:00,
2013-10-18 05:40:00,49.3,42.7,29.98,North,0,0.0,0.0,78,0.00,,,0.00,LWC V2.00 B2112,2013-10-18 12:40:00,
2013-10-18 05:50:00,49.3,42.7,29.98,North,0,0.0,0.0,78,0.00,,,0.00,LWC V2.00 B2112,2013-10-18 12:50:00,
2013-10-18 06:00:00,49.3,42.7,29.98,North,0,0.0,0.0,78,0.00,,,0.00,LWC V2.00 B2112,2013-10-18 13:00:00,
2013-10-18 06:10:00,48.8,42.2,29.98,North,0,0.0,0.0,78,0.00,,,0.00,LWC V2.00 B2112,2013-10-18 13:10:00,
2013-10-18 06:20:00,48.8,42.2,29.98,North,0,0.0,0.0,78,0.00,,,0.00,LWC V2.00 B2112,2013-10-18 13:20:00,
2013-10-18 06:30:00,48.8,42.2,29.98,North,0,0.0,0.0,78,0.00,,,0.00,LWC V2.00 B2112,2013-10-18 13:30:00,
2013-10-18 06:40:00,48.8,42.6,29.98,North,0,0.0,0.0,79,0.00,,,0.00,LWC V2.00 B2112,2013-10-18 13:40:00,
2013-10-18 06:50:00,48.8,42.6,29.98,North,0,0.0,0.0,79,0.00,,,0.00,LWC V2.00 B2112,2013-10-18 13:50:00,
2013-10-18 07:00:00,48.8,42.6,29.98,North,0,0.0,0.0,79,0.00,,,0.00,LWC V2.00 B2112,2013-10-18 14:00:00,
2013-10-18 07:10:00,48.7,42.5,29.99,North,0,0.0,0.0,79,0.00,,,0.00,LWC V2.00 B2112,2013-10-18 14:10:00,
2013-10-18 07:20:00,48.7,42.5,29.99,North,0,0.0,0.0,79,0.00,,,0.00,LWC V2.00 B2112,2013-10-18 14:20:00,
2013-10-18 07:30:00,48.7,42.5,29.99,North,0,0.0,0.0,79,0.00,,,0.00,LWC V2.00 B2112,2013-10-18 14:30:00,
2013-10-18 07:40:00,48.4,42.2,29.99,North,0,0.0,0.0,79,0.00,,,0.00,LWC V2.00 B2112,2013-10-18 14:40:00,
2013-10-18 07:50:00,48.4,42.2,29.99,North,0,0.0,0.0,79,0.00,,,0.00,LWC V2.00 B2112,2013-10-18 14:50:00,
2013-10-18 08:00:00,48.4,42.2,29.99,North,0,0.0,0.0,79,0.00,,,0.00,LWC V2.00 B2112,2013-10-18 15:00:00,
2013-10-18 08:10:00,47.8,41.6,30.00,ENE,68,0.0,1.0,79,0.00,,,0.00,LWC V2.00 B2112,2013-10-18 15:10:00,
2013-10-18 08:20:00,47.8,41.6,30.00,ENE,68,0.0,1.0,79,0.00,,,0.00,LWC V2.00 B2112,2013-10-18 15:20:00,
2013-10-18 08:30:00,47.8,41.6,30.00,ENE,68,0.0,1.0,79,0.00,,,0.00,LWC V2.00 B2112,2013-10-18 15:30:00,
2013-10-18 08:40:00,47.5,41.3,30.01,East,90,0.0,1.0,79,0.00,,,0.00,LWC V2.00 B2112,2013-10-18 15:40:00,
2013-10-18 08:55:00,47.4,41.2,30.01,East,93,0.0,0.0,79,0.00,,,0.00,LWC V2.00 B2112,2013-10-18 15:55:00,
2013-10-18 09:00:00,47.6,41.4,30.01,East,93,0.0,0.0,79,0.00,,,0.00,LWC V2.00 B2112,2013-10-18 16:00:00,
2013-10-18 09:05:00,47.8,41.6,30.01,East,94,0.0,0.0,79,0.00,,,0.00,LWC V2.00 B2112,2013-10-18 16:05:00,
2013-10-18 09:10:00,47.7,41.5,30.02,East,100,0.0,0.0,79,0.00,,,0.00,LWC V2.00 B2112,2013-10-18 16:10:00,
2013-10-18 09:15:00,47.8,41.6,30.02,NW,326,0.0,0.0,79,0.00,,,0.00,LWC V2.00 B2112,2013-10-18 16:15:00,
2013-10-18 09:20:00,47.9,41.7,30.02,NE,39,0.0,0.0,79,0.00,,,0.00,LWC V2.00 B2112,2013-10-18 16:20:00,
2013-10-18 09:25:00,47.9,41.7,30.02,NE,39,0.0,0.0,79,0.00,,,0.00,LWC V2.00 B2112,2013-10-18 16:25:00,
2013-10-18 09:30:00,48.3,42.1,30.02,NE,39,0.0,0.0,79,0.00,,,0.00,LWC V2.00 B2112,2013-10-18 16:30:00,
2013-10-18 09:35:00,48.6,42.4,30.03,NE,39,0.0,0.0,79,0.00,,,0.00,LWC V2.00 B2112,2013-10-18 16:35:00,
2013-10-18 09:40:00,48.7,42.5,30.03,NE,39,0.0,0.0,79,0.00,,,0.00,LWC V2.00 B2112,2013-10-18 16:40:00,
2013-10-18 09:45:00,49.1,42.9,30.02,NE,39,0.0,0.0,79,0.00,,,0.00,LWC V2.00 B2112,2013-10-18 16:45:00,
2013-10-18 09:50:00,49.7,43.5,30.02,NE,39,0.0,0.0,79,0.00,,,0.00,LWC V2.00 B2112,2013-10-18 16:50:00,
2013-10-18 09:55:00,50.1,43.8,30.03,NNE,19,0.0,0.0,79,0.00,,,0.00,LWC V2.00 B2112,2013-10-18 16:55:00,
2013-10-18 10:00:00,50.3,44.0,30.03,East,85,0.0,0.0,79,0.00,,,0.00,LWC V2.00 B2112,2013-10-18 17:00:00,
2013-10-18 10:05:00,50.9,44.3,30.03,East,85,0.0,0.0,78,0.00,,,0.00,LWC V2.00 B2112,2013-10-18 17:05:00,
2013-10-18 10:10:00,51.4,44.8,30.03,East,83,0.0,0.0,78,0.00,,,0.00,LWC V2.00 B2112,2013-10-18 17:10:00,
2013-10-18 10:15:00,51.9,45.3,30.02,ENE,63,0.0,0.0,78,0.00,,,0.00,LWC V2.00 B2112,2013-10-18 17:15:00,
2013-10-18 10:20:00,52.1,45.5,30.02,South,188,0.0,0.0,78,0.00,,,0.00,LWC V2.00 B2112,2013-10-18 17:20:00,
2013-10-18 10:25:00,52.7,46.0,30.02,ESE,110,0.0,0.0,78,0.00,,,0.00,LWC V2.00 B2112,2013-10-18 17:25:00,
2013-10-18 10:30:00,53.2,46.5,30.02,ESE,102,2.0,3.0,78,0.00,,,0.00,LWC V2.00 B2112,2013-10-18 17:30:00,
2013-10-18 10:35:00,53.5,46.8,30.02,SSW,200,0.0,2.0,78,0.00,,,0.00,LWC V2.00 B2112,2013-10-18 17:35:00,
2013-10-18 10:40:00,53.9,47.5,30.02,SSE,163,0.0,0.0,79,0.00,,,0.00,LWC V2.00 B2112,2013-10-18 17:40:00,
2013-10-18 10:45:00,54.4,48.0,30.02,West,280,0.0,2.0,79,0.00,,,0.00,LWC V2.00 B2112,2013-10-18 17:45:00,
2013-10-18 10:50:00,54.9,48.5,30.02,SSW,210,0.0,2.0,79,0.00,,,0.00,LWC V2.00 B2112,2013-10-18 17:50:00,
2013-10-18 10:55:00,55.5,49.1,30.02,WNW,295,0.0,0.0,79,0.00,,,0.00,LWC V2.00 B2112,2013-10-18 17:55:00,
2013-10-18 11:00:00,55.6,49.2,30.02,SSW,201,0.0,1.0,79,0.00,,,0.00,LWC V2.00 B2112,2013-10-18 18:00:00,
2013-10-18 11:05:00,55.7,49.6,30.02,ESE,108,0.0,1.0,80,0.00,,,0.00,LWC V2.00 B2112,2013-10-18 18:05:00,
2013-10-18 11:10:00,56.1,50.0,30.02,SW,221,1.0,2.0,80,0.00,,,0.00,LWC V2.00 B2112,2013-10-18 18:10:00,
2013-10-18 11:15:00,56.6,50.5,30.02,WNW,297,0.0,2.0,80,0.00,,,0.00,LWC V2.00 B2112,2013-10-18 18:15:00,
2013-10-18 11:20:00,56.9,50.8,30.02,WSW,246,2.0,3.0,80,0.00,,,0.00,LWC V2.00 B2112,2013-10-18 18:20:00,
2013-10-18 11:25:00,57.1,50.6,30.02,NNW,340,0.0,1.0,79,0.00,,,0.00,LWC V2.00 B2112,2013-10-18 18:25:00,
2013-10-18 11:30:00,57.2,50.7,30.02,SW,221,1.0,4.0,79,0.00,,,0.00,LWC V2.00 B2112,2013-10-18 18:30:00,
2013-10-18 11:35:00,57.2,50.7,30.02,SSW,205,3.0,6.0,79,0.00,,,0.00,LWC V2.00 B2112,2013-10-18 18:35:00,
2013-10-18 11:40:00,57.2,50.7,30.02,WSW,248,2.0,5.0,79,0.00,,,0.00,LWC V2.00 B2112,2013-10-18 18:40:00,
2013-10-18 11:45:00,57.4,50.9,30.02,SE,130,1.0,4.0,79,0.00,,,0.00,LWC V2.00 B2112,2013-10-18 18:45:00,
2013-10-18 11:50:00,57.5,51.0,30.02,WSW,238,2.0,5.0,79,0.00,,,0.00,LWC V2.00 B2112,2013-10-18 18:50:00,
2013-10-18 11:55:00,57.7,51.2,30.02,SE,128,1.0,2.0,79,0.00,,,0.00,LWC V2.00 B2112,2013-10-18 18:55:00,
2013-10-18 12:00:00,57.9,51.4,30.01,SE,134,1.0,3.0,79,0.00,,,0.00,LWC V2.00 B2112,2013-10-18 19:00:00,
2013-10-18 12:05:00,58.2,51.7,30.01,West,264,1.0,4.0,79,0.00,,,0.00,LWC V2.00 B2112,2013-10-18 19:05:00,
2013-10-18 12:10:00,58.3,51.5,30.01,NW,304,4.0,4.0,78,0.00,,,0.00,LWC V2.00 B2112,2013-10-18 19:10:00,
2013-10-18 12:15:00,58.3,51.5,30.01,SE,141,1.0,4.0,78,0.00,,,0.00,LWC V2.00 B2112,2013-10-18 19:15:00,
2013-10-18 12:20:00,58.4,51.6,30.01,West,266,3.0,4.0,78,0.00,,,0.00,LWC V2.00 B2112,2013-10-18 19:20:00,
2013-10-18 12:25:00,58.7,51.9,30.01,NW,326,1.0,4.0,78,0.00,,,0.00,LWC V2.00 B2112,2013-10-18 19:25:00,
2013-10-18 12:30:00,58.8,51.6,30.01,SW,226,2.0,6.0,77,0.00,,,0.00,LWC V2.00 B2112,2013-10-18 19:30:00,
2013-10-18 12:35:00,58.8,51.6,30.01,SW,224,3.0,7.0,77,0.00,,,0.00,LWC V2.00 B2112,2013-10-18 19:35:00,
2013-10-18 12:40:00,59.0,52.1,30.01,SW,215,3.0,3.0,78,0.00,,,0.00,LWC V2.00 B2112,2013-10-18 19:40:00,
2013-10-18 12:45:00,59.3,52.1,30.00,East,101,0.0,3.0,77,0.00,,,0.00,LWC V2.00 B2112,2013-10-18 19:45:00,
2013-10-18 12:50:00,59.4,52.2,30.00,East,97,2.0,2.0,77,0.00,,,0.00,LWC V2.00 B2112,2013-10-18 19:50:00,
2013-10-18 12:55:00,59.6,52.7,30.00,East,100,1.0,4.0,78,0.00,,,0.00,LWC V2.00 B2112,2013-10-18 19:55:00,
2013-10-18 13:00:00,59.9,52.7,30.00,South,169,3.0,4.0,77,0.00,,,0.00,LWC V2.00 B2112,2013-10-18 20:00:00,
2013-10-18 13:05:00,59.9,52.3,30.00,ESE,110,1.0,1.0,76,0.00,,,0.00,LWC V2.00 B2112,2013-10-18 20:05:00,
2013-10-18 13:10:00,59.9,52.3,30.00,SE,128,2.0,3.0,76,0.00,,,0.00,LWC V2.00 B2112,2013-10-18 20:10:00,
2013-10-18 13:15:00,59.5,51.9,30.00,SSE,148,2.0,2.0,76,0.00,,,0.00,LWC V2.00 B2112,2013-10-18 20:15:00,
2013-10-18 13:20:00,59.6,52.0,30.00,ESE,106,3.0,4.0,76,0.00,,,0.00,LWC V2.00 B2112,2013-10-18 20:20:00,
2013-10-18 13:25:00,59.4,52.2,30.00,WSW,257,2.0,6.0,77,0.00,,,0.00,LWC V2.00 B2112,2013-10-18 20:25:00,
2013-10-18 13:30:00,59.4,51.8,30.00,South,187,1.0,5.0,76,0.00,,,0.00,LWC V2.00 B2112,2013-10-18 20:30:00,
2013-10-18 13:35:00,59.6,52.0,29.99,SSW,203,0.0,4.0,76,0.00,,,0.00,LWC V2.00 B2112,2013-10-18 20:35:00,
2013-10-18 13:40:00,60.0,52.4,29.99,East,89,2.0,3.0,76,0.00,,,0.00,LWC V2.00 B2112,2013-10-18 20:40:00,
2013-10-18 13:45:00,59.8,52.2,29.99,ESE,107,1.0,3.0,76,0.00,,,0.00,LWC V2.00 B2112,2013-10-18 20:45:00,
2013-10-18 13:50:00,59.8,52.2,29.99,SW,215,1.0,4.0,76,0.00,,,0.00,LWC V2.00 B2112,2013-10-18 20:50:00,
2013-10-18 13:55:00,60.3,52.3,29.99,West,274,2.0,3.0,75,0.00,,,0.00,LWC V2.00 B2112,2013-10-18 20:55:00,
2013-10-18 14:00:00,60.3,52.0,29.99,East,98,3.0,3.0,74,0.00,,,0.00,LWC V2.00 B2112,2013-10-18 21:00:00,
2013-10-18 14:05:00,59.6,51.7,29.99,SE,130,1.0,4.0,75,0.00,,,0.00,LWC V2.00 B2112,2013-10-18 21:05:00,
2013-10-18 14:10:00,59.4,51.8,29.99,East,86,3.0,6.0,76,0.00,,,0.00,LWC V2.00 B2112,2013-10-18 21:10:00,
2013-10-18 14:15:00,59.0,51.4,29.99,ESE,108,4.0,4.0,76,0.00,,,0.00,LWC V2.00 B2112,2013-10-18 21:15:00,
2013-10-18 14:20:00,58.9,51.3,29.98,SE,144,2.0,3.0,76,0.00,,,0.00,LWC V2.00 B2112,2013-10-18 21:20:00,
2013-10-18 14:25:00,58.6,51.4,29.98,ESE,112,3.0,3.0,77,0.00,,,0.00,LWC V2.00 B2112,2013-10-18 21:25:00,
2013-10-18 14:30:00,58.5,51.0,29.98,ESE,106,3.0,6.0,76,0.00,,,0.00,LWC V2.00 B2112,2013-10-18 21:30:00,
2013-10-18 14:35:00,58.1,50.9,29.98,East,88,2.0,3.0,77,0.00,,,0.00,LWC V2.00 B2112,2013-10-18 21:35:00,
2013-10-18 14:40:00,58.1,50.9,29.98,SSE,155,2.0,3.0,77,0.00,,,0.00,LWC V2.00 B2112,2013-10-18 21:40:00,
2013-10-18 14:45:00,58.1,50.9,29.98,SW,229,2.0,4.0,77,0.00,,,0.00,LWC V2.00 B2112,2013-10-18 21:45:00,
2013-10-18 14:50:00,58.0,50.8,29.98,SSE,150,2.0,2.0,77,0.00,,,0.00,LWC V2.00 B2112,2013-10-18 21:50:00,
2013-10-18 14:55:00,57.7,50.5,29.98,SE,138,2.0,3.0,77,0.00,,,0.00,LWC V2.00 B2112,2013-10-18 21:55:00,
2013-10-18 15:00:00,57.2,50.1,29.98,South,169,4.0,6.0,77,0.00,,,0.00,LWC V2.00 B2112,2013-10-18 22:00:00,
2013-10-18 15:05:00,56.8,50.0,29.98,SSW,201,4.0,4.0,78,0.00,,,0.00,LWC V2.00 B2112,2013-10-18 22:05:00,
2013-10-18 15:10:00,56.4,49.6,29.98,South,173,2.0,4.0,78,0.00,,,0.00,LWC V2.00 B2112,2013-10-18 22:10:00,
2013-10-18 15:15:00,56.1,49.7,29.98,South,180,2.0,5.0,79,0.00,,,0.00,LWC V2.00 B2112,2013-10-18 22:15:00,
2013-10-18 15:20:00,55.7,49.3,29.98,SSE,153,3.0,5.0,79,0.00,,,0.00,LWC V2.00 B2112,2013-10-18 22:20:00,
2013-10-18 15:25:00,55.4,49.0,29.98,WSW,239,2.0,5.0,79,0.00,,,0.00,LWC V2.00 B2112,2013-10-18 22:25:00,
2013-10-18 15:30:00,55.2,48.8,29.98,South,179,1.0,7.0,79,0.00,,,0.00,LWC V2.00 B2112,2013-10-18 22:30:00,
2013-10-18 15:35:00,55.1,48.7,29.98,SSE,165,1.0,4.0,79,0.00,,,0.00,LWC V2.00 B2112,2013-10-18 22:35:00,
2013-10-18 15:40:00,54.9,48.5,29.98,ESE,119,3.0,3.0,79,0.00,,,0.00,LWC V2.00 B2112,2013-10-18 22:40:00,
2013-10-18 15:45:00,54.9,48.5,29.98,ESE,106,0.0,3.0,79,0.00,,,0.00,LWC V2.00 B2112,2013-10-18 22:45:00,
2013-10-18 15:50:00,54.7,48.3,29.98,SSW,197,0.0,4.0,79,0.00,,,0.00,LWC V2.00 B2112,2013-10-18 22:50:00,
2013-10-18 15:55:00,54.5,48.1,29.98,SW,218,1.0,3.0,79,0.00,,,0.00,LWC V2.00 B2112,2013-10-18 22:55:00,
2013-10-18 16:00:00,54.4,48.0,29.98,South,183,2.0,3.0,79,0.00,,,0.00,LWC V2.00 B2112,2013-10-18 23:00:00,
2013-10-18 16:05:00,54.2,47.8,29.98,South,190,1.0,5.0,79,0.00,,,0.00,LWC V2.00 B2112,2013-10-18 23:05:00,
2013-10-18 16:10:00,54.1,47.7,29.98,SE,145,4.0,4.0,79,0.00,,,0.00,LWC V2.00 B2112,2013-10-18 23:10:00,
2013-10-18 16:15:00,54.0,47.6,29.98,SW,228,3.0,4.0,79,0.00,,,0.00,LWC V2.00 B2112,2013-10-18 23:15:00,
2013-10-18 16:20:00,53.9,47.9,29.98,South,174,3.0,6.0,80,0.00,,,0.00,LWC V2.00 B2112,2013-10-18 23:20:00,
2013-10-18 16:25:00,53.7,47.7,29.98,SSE,149,2.0,5.0,80,0.00,,,0.00,LWC V2.00 B2112,2013-10-18 23:25:00,
2013-10-18 16:30:00,53.6,47.6,29.98,SW,228,3.0,4.0,80,0.00,,,0.00,LWC V2.00 B2112,2013-10-18 23:30:00,
2013-10-18 16:35:00,53.4,47.4,29.98,SE,126,1.0,3.0,80,0.00,,,0.00,LWC V2.00 B2112,2013-10-18 23:35:00,
2013-10-18 16:40:00,53.2,47.2,29.98,SW,224,2.0,2.0,80,0.00,,,0.00,LWC V2.00 B2112,2013-10-18 23:40:00,
2013-10-18 16:45:00,53.1,47.1,29.98,SSW,211,0.0,2.0,80,0.00,,,0.00,LWC V2.00 B2112,2013-10-18 23:45:00,
2013-10-18 16:50:00,52.9,46.9,29.98,SSW,193,1.0,2.0,80,0.00,,,0.00,LWC V2.00 B2112,2013-10-18 23:50:00,
2013-10-18 16:55:00,52.8,46.8,29.98,West,274,1.0,5.0,80,0.00,,,0.00,LWC V2.00 B2112,2013-10-18 23:55:00,
2013-10-18 17:00:00,52.6,46.6,29.98,WNW,303,1.0,3.0,80,0.00,,,0.00,LWC V2.00 B2112,2013-10-19 00:00:00,
2013-10-18 17:05:00,52.6,46.6,29.98,SW,224,0.0,2.0,80,0.00,,,0.00,LWC V2.00 B2112,2013-10-19 00:05:00,
2013-10-18 17:10:00,52.7,46.7,29.98,SSE,156,0.0,1.0,80,0.00,,,0.00,LWC V2.00 B2112,2013-10-19 00:10:00,
2013-10-18 17:15:00,52.6,46.6,29.98,WSW,240,0.0,0.0,80,0.00,,,0.00,LWC V2.00 B2112,2013-10-19 00:15:00,
2013-10-18 17:20:00,52.5,46.5,29.98,WSW,257,0.0,2.0,80,0.00,,,0.00,LWC V2.00 B2112,2013-10-19 00:20:00,
2013-10-18 17:25:00,52.4,46.4,29.98,East,95,2.0,3.0,80,0.00,,,0.00,LWC V2.00 B2112,2013-10-19 00:25:00,
2013-10-18 17:30:00,52.2,46.2,29.98,SSE,165,0.0,0.0,80,0.00,,,0.00,LWC V2.00 B2112,2013-10-19 00:30:00,
2013-10-18 17:35:00,52.0,46.0,29.98,ESE,112,1.0,2.0,80,0.00,,,0.00,LWC V2.00 B2112,2013-10-19 00:35:00,
2013-10-18 17:40:00,51.7,45.7,29.98,SW,225,0.0,1.0,80,0.00,,,0.00,LWC V2.00 B2112,2013-10-19 00:40:00,
2013-10-18 17:45:00,51.4,45.4,29.98,South,188,0.0,0.0,80,0.00,,,0.00,LWC V2.00 B2112,2013-10-19 00:45:00,
2013-10-18 17:50:00,51.1,45.1,29.98,SSW,212,0.0,2.0,80,0.00,,,0.00,LWC V2.00 B2112,2013-10-19 00:50:00,
2013-10-18 17:55:00,50.8,44.9,29.98,SW,214,0.0,1.0,80,0.00,,,0.00,LWC V2.00 B2112,2013-10-19 00:55:00,
2013-10-18 18:00:00,50.5,44.6,29.99,SSW,212,0.0,1.0,80,0.00,,,0.00,LWC V2.00 B2112,2013-10-19 01:00:00,
2013-10-18 18:05:00,50.2,44.3,29.99,WNW,291,0.0,1.0,80,0.00,,,0.00,LWC V2.00 B2112,2013-10-19 01:05:00,
2013-10-18 18:10:00,49.9,44.0,29.99,SE,142,0.0,1.0,80,0.00,,,0.00,LWC V2.00 B2112,2013-10-19 01:10:00,
2013-10-18 18:15:00,49.6,43.7,29.99,WNW,301,0.0,1.0,80,0.00,,,0.00,LWC V2.00 B2112,2013-10-19 01:15:00,
2013-10-18 18:20:00,49.5,43.6,29.99,East,85,0.0,0.0,80,0.00,,,0.00,LWC V2.00 B2112,2013-10-19 01:20:00,
2013-10-18 18:25:00,49.2,43.3,29.99,East,95,0.0,0.0,80,0.00,,,0.00,LWC V2.00 B2112,2013-10-19 01:25:00,
2013-10-18 18:30:00,49.0,43.1,29.99,East,96,0.0,0.0,80,0.00,,,0.00,LWC V2.00 B2112,2013-10-19 01:30:00,
2013-10-18 18:35:00,48.8,42.9,29.99,East,96,0.0,0.0,80,0.00,,,0.00,LWC V2.00 B2112,2013-10-19 01:35:00,
2013-10-18 18:40:00,48.4,42.5,29.99,East,96,0.0,0.0,80,0.00,,,0.00,LWC V2.00 B2112,2013-10-19 01:40:00,
2013-10-18 18:45:00,48.1,42.2,29.99,East,96,0.0,0.0,80,0.00,,,0.00,LWC V2.00 B2112,2013-10-19 01:45:00,
2013-10-18 18:50:00,47.9,42.0,29.99,East,96,0.0,0.0,80,0.00,,,0.00,LWC V2.00 B2112,2013-10-19 01:50:00,
2013-10-18 18:55:00,48.0,41.8,30.00,SE,132,0.0,0.0,79,0.00,,,0.00,LWC V2.00 B2112,2013-10-19 01:55:00,
2013-10-18 19:00:00,48.0,41.8,29.99,SE,134,0.0,0.0,79,0.00,,,0.00,LWC V2.00 B2112,2013-10-19 02:00:00,
2013-10-18 19:05:00,48.0,41.8,30.00,SE,134,0.0,0.0,79,0.00,,,0.00,LWC V2.00 B2112,2013-10-19 02:05:00,
2013-10-18 19:10:00,47.9,41.7,30.00,SE,134,0.0,0.0,79,0.00,,,0.00,LWC V2.00 B2112,2013-10-19 02:10:00,
2013-10-18 19:15:00,48.0,41.8,30.00,SE,132,0.0,0.0,79,0.00,,,0.00,LWC V2.00 B2112,2013-10-19 02:15:00,
2013-10-18 19:20:00,48.1,41.9,30.00,SE,134,0.0,0.0,79,0.00,,,0.00,LWC V2.00 B2112,2013-10-19 02:20:00,
2013-10-18 19:25:00,48.1,41.9,30.00,SE,134,0.0,0.0,79,0.00,,,0.00,LWC V2.00 B2112,2013-10-19 02:25:00,
2013-10-18 19:30:00,48.0,41.8,30.00,SE,134,0.0,0.0,79,0.00,,,0.00,LWC V2.00 B2112,2013-10-19 02:30:00,
2013-10-18 19:35:00,47.7,41.5,30.00,SE,134,0.0,0.0,79,0.00,,,0.00,LWC V2.00 B2112,2013-10-19 02:35:00,
2013-10-18 19:40:00,47.3,41.4,30.00,SE,134,0.0,0.0,80,0.00,,,0.00,LWC V2.00 B2112,2013-10-19 02:40:00,
2013-10-18 19:45:00,46.8,41.0,30.00,SE,134,0.0,0.0,80,0.00,,,0.00,LWC V2.00 B2112,2013-10-19 02:45:00,
2013-10-18 19:50:00,46.4,40.6,30.00,SE,134,0.0,0.0,80,0.00,,,0.00,LWC V2.00 B2112,2013-10-19 02:50:00,
2013-10-18 19:55:00,46.0,40.2,30.00,SE,134,0.0,0.0,80,0.00,,,0.00,LWC V2.00 B2112,2013-10-19 02:55:00,
2013-10-18 20:00:00,45.6,39.8,30.00,SE,134,0.0,0.0,80,0.00,,,0.00,LWC V2.00 B2112,2013-10-19 03:00:00,
2013-10-18 20:05:00,45.3,39.5,30.00,SE,134,0.0,0.0,80,0.00,,,0.00,LWC V2.00 B2112,2013-10-19 03:05:00,
2013-10-18 20:10:00,45.0,39.2,30.00,SE,134,0.0,0.0,80,0.00,,,0.00,LWC V2.00 B2112,2013-10-19 03:10:00,
2013-10-18 20:15:00,44.7,38.9,30.00,SE,134,0.0,0.0,80,0.00,,,0.00,LWC V2.00 B2112,2013-10-19 03:15:00,
2013-10-18 20:20:00,44.7,38.9,30.00,SE,134,0.0,0.0,80,0.00,,,0.00,LWC V2.00 B2112,2013-10-19 03:20:00,
2013-10-18 20:25:00,44.8,39.0,30.00,SE,134,0.0,0.0,80,0.00,,,0.00,LWC V2.00 B2112,2013-10-19 03:25:00,
2013-10-18 20:30:00,44.8,39.0,30.00,SE,134,0.0,0.0,80,0.00,,,0.00,LWC V2.00 B2112,2013-10-19 03:30:00,
2013-10-18 20:35:00,45.0,38.9,30.00,SW,221,0.0,0.0,79,0.00,,,0.00,LWC V2.00 B2112,2013-10-19 03:35:00,
2013-10-18 20:40:00,45.1,39.0,30.00,SW,221,0.0,0.0,79,0.00,,,0.00,LWC V2.00 B2112,2013-10-19 03:40:00,
2013-10-18 20:45:00,45.3,39.2,30.00,SW,221,0.0,0.0,79,0.00,,,0.00,LWC V2.00 B2112,2013-10-19 03:45:00,
2013-10-18 20:50:00,45.4,39.3,30.00,SW,221,0.0,0.0,79,0.00,,,0.00,LWC V2.00 B2112,2013-10-19 03:50:00,
2013-10-18 20:55:00,45.5,39.4,30.00,SW,221,0.0,0.0,79,0.00,,,0.00,LWC V2.00 B2112,2013-10-19 03:55:00,
2013-10-18 21:00:00,45.7,39.6,30.00,SW,221,0.0,0.0,79,0.00,,,0.00,LWC V2.00 B2112,2013-10-19 04:00:00,
2013-10-18 21:01:00,45.7,39.6,30.00,SW,220,0.0,0.0,79,0.00,,,0.00,LWC V2.00 B2112,2013-10-19 04:01:00,
2013-10-18 21:06:00,45.8,39.7,30.00,SW,221,0.0,0.0,79,0.00,,,0.00,LWC V2.00 B2112,2013-10-19 04:06:00,
2013-10-18 21:11:00,45.9,39.8,30.00,SW,221,0.0,0.0,79,0.00,,,0.00,LWC V2.00 B2112,2013-10-19 04:11:00,
2013-10-18 21:16:00,45.9,39.8,30.01,SW,221,0.0,0.0,79,0.00,,,0.00,LWC V2.00 B2112,2013-10-19 04:16:00,
2013-10-18 21:21:00,45.9,39.8,30.01,SW,221,0.0,0.0,79,0.00,,,0.00,LWC V2.00 B2112,2013-10-19 04:21:00,
2013-10-18 21:26:00,46.0,39.9,30.01,SW,221,0.0,0.0,79,0.00,,,0.00,LWC V2.00 B2112,2013-10-19 04:26:00,
2013-10-18 21:31:00,46.0,39.9,30.01,SW,221,0.0,0.0,79,0.00,,,0.00,LWC V2.00 B2112,2013-10-19 04:31:00,
2013-10-18 21:36:00,46.1,40.0,30.01,SW,221,0.0,0.0,79,0.00,,,0.00,LWC V2.00 B2112,2013-10-19 04:36:00,
2013-10-18 21:41:00,46.1,40.0,30.01,SW,221,0.0,0.0,79,0.00,,,0.00,LWC V2.00 B2112,2013-10-19 04:41:00,
2013-10-18 21:46:00,46.1,40.0,30.01,SW,221,0.0,0.0,79,0.00,,,0.00,LWC V2.00 B2112,2013-10-19 04:46:00,
2013-10-18 21:51:00,46.2,40.1,30.01,SW,221,0.0,0.0,79,0.00,,,0.00,LWC V2.00 B2112,2013-10-19 04:51:00,
2013-10-18 21:56:00,46.3,40.1,30.01,SW,221,0.0,0.0,79,0.00,,,0.00,LWC V2.00 B2112,2013-10-19 04:56:00,
2013-10-18 22:01:00,46.3,40.1,30.01,SW,221,0.0,0.0,79,0.00,,,0.00,LWC V2.00 B2112,2013-10-19 05:01:00,
2013-10-18 22:06:00,46.3,40.1,30.01,SW,221,0.0,0.0,79,0.00,,,0.00,LWC V2.00 B2112,2013-10-19 05:06:00,
2013-10-18 22:11:00,46.3,40.1,30.01,SW,221,0.0,0.0,79,0.00,,,0.00,LWC V2.00 B2112,2013-10-19 05:11:00,
2013-10-18 22:16:00,46.3,40.1,30.01,SW,225,0.0,0.0,79,0.00,,,0.00,LWC V2.00 B2112,2013-10-19 05:16:00,
2013-10-18 22:20:00,46.3,40.2,30.01,North,0,0.0,0.0,79,0.00,,,0.00,LWC V2.00 B2112,2013-10-19 05:20:00,
2013-10-18 22:30:00,46.3,40.2,30.01,North,0,0.0,0.0,79,0.00,,,0.00,LWC V2.00 B2112,2013-10-19 05:30:00,
2013-10-18 22:40:00,46.3,40.2,30.01,North,0,0.0,0.0,79,0.00,,,0.00,LWC V2.00 B2112,2013-10-19 05:40:00,
2013-10-18 22:50:00,46.3,40.2,30.01,North,0,0.0,0.0,79,0.00,,,0.00,LWC V2.00 B2112,2013-10-19 05:50:00,
2013-10-18 23:00:00,45.6,39.5,30.01,North,0,0.0,0.0,79,0.00,,,0.00,LWC V2.00 B2112,2013-10-19 06:00:00,
2013-10-18 23:10:00,45.6,39.5,30.01,North,0,0.0,0.0,79,0.00,,,0.00,LWC V2.00 B2112,2013-10-19 06:10:00,
2013-10-18 23:20:00,45.6,39.5,30.01,North,0,0.0,0.0,79,0.00,,,0.00,LWC V2.00 B2112,2013-10-19 06:20:00,
2013-10-18 23:30:00,45.5,39.4,30.00,North,0,0.0,0.0,79,0.00,,,0.00,LWC V2.00 B2112,2013-10-19 06:30:00,
2013-10-18 23:40:00,45.5,39.4,30.00,North,0,0.0,0.0,79,0.00,,,0.00,LWC V2.00 B2112,2013-10-19 06:40:00,
2013-10-18 23:50:00,45.5,39.4,30.00,North,0,0.0,0.0,79,0.00,,,0.00,LWC V2.00 B2112,2013-10-19 06:50:00,